Location: ??????
(38.3184°N, 23.6932°E)
Time: 01:01:45
(UTC+00:00)

ATLAS 3B R/B - Pass Details

Date: 16 October 2021
Orbit: 989 x 1206 km, 63.8° (Epoch: 25 November)

Event Time Altitude Azimuth Distance (km) Brightness Sun altitude
Rises 16:35:15 0° 227° (SW) 3,693 6.4 -10.4°
Reaches altitude 10° 16:37:53 10° 233° (SW) 2,759 5.8 -11.0°
Maximum altitude 16:44:09 51° 308° (NW) 1,260 3.4 -12.2°
Drops below altitude 10° 16:50:43 10° 24° (NNE) 2,881 4.7 -13.5°
Sets 16:53:31 0° 30° (NNE) 3,871 5.3 -14.0°
